GW5270 Weather Reports


time (UTC)temp
F
wind
direction
speed
knots
gust
knots
rain 1hr
in
rain 24hr
in
rain mn
in
humidity
%
barometer
mb
20260508023437 48 326 0.0 0.9 0.00 0.03 0.03 55 1016.0
20260508022935 48 331 1.7 2.6 0.00 0.03 0.03 54 1015.9
20260508022430 48 355 2.6 3.5 0.00 0.03 0.03 54 1015.8
20260508021927 49 339 0.9 2.6 0.00 0.03 0.03 53 1016.0
20260508021424 49 322 0.9 2.6 0.00 0.03 0.03 52 1015.7
20260508020919 49 330 1.7 2.6 0.00 0.03 0.03 51 1015.7
20260508020418 49 335 3.5 3.5 0.00 0.03 0.03 50 1015.4
20260508015914 49 326 3.5 5.2 0.00 0.03 0.03 49 1015.6
20260508015412 50 324 1.7 1.7 0.00 0.03 0.03 50 1015.4
20260508014908 50 335 3.5 3.5 0.00 0.03 0.03 48 1015.4
20260508014406 51 329 2.6 7.0 0.00 0.03 0.03 46 1015.3
20260508013902 51 331 1.7 5.2 0.00 0.03 0.03 47 1015.1
20260508013357 51 327 5.2 7.8 0.00 0.03 0.03 47 1015.1
20260508012855 51 307 1.7 6.1 0.00 0.03 0.03 47 1015.0
20260508012352 51 334 2.6 6.1 0.00 0.03 0.03 48 1014.9
20260508011850 51 319 0.9 5.2 0.00 0.03 0.03 49 1015.0
20260508011347 51 315 3.5 5.2 0.00 0.03 0.03 48 1014.9
20260508010844 51 340 3.5 7.8 0.00 0.03 0.03 49 1014.9
20260508010342 52 333 3.5 5.2 0.00 0.03 0.03 49 1014.8
20260508005839 52 318 2.6 5.2 0.00 0.03 0.03 48 1014.9
20260508005335 52 333 7.8 8.7 0.00 0.03 0.03 47 1014.7
20260508004831 52 327 3.5 6.1 0.00 0.03 0.03 50 1014.8
20260508004328 52 333 1.7 6.1 0.00 0.03 0.03 49 1014.5
20260508003824 52 331 1.7 3.5 0.00 0.03 0.03 50 1014.4
20260508003322 53 331 4.3 6.1 0.00 0.03 0.03 50 1014.2
20260508002819 53 319 2.6 5.2 0.00 0.03 0.03 50 1014.3
20260508002315 53 327 1.7 2.6 0.00 0.03 0.03 49 1014.4
20260508001811 53 330 2.6 3.5 0.00 0.03 0.03 49 1014.1
20260508001307 54 316 2.6 7.0 0.00 0.03 0.03 47 1013.9
20260508000803 54 341 2.6 7.8 0.00 0.03 0.03 47 1013.9
20260508000300 55 305 2.6 5.2 0.00 0.03 0.03 46 1013.9
20260507235757 55 321 3.5 7.0 0.00 0.03 0.03 45 1013.9
20260507235255 56 304 3.5 5.2 0.00 0.03 0.03 44 1013.7
20260507234751 56 292 1.7 5.2 0.00 0.03 0.03 45 1013.7
20260507234248 56 307 1.7 3.5 0.00 0.03 0.03 48 1013.7
20260507233744 56 322 4.3 5.2 0.00 0.03 0.03 44 1013.7
20260507233242 56 314 1.7 3.5 0.00 0.03 0.03 46 1013.7
20260507232740 56 320 5.2 7.0 0.00 0.03 0.03 45 1013.6
20260507232237 55 322 2.6 3.5 0.00 0.03 0.03 47 1013.6
20260507231733 55 315 2.6 3.5 0.00 0.03 0.03 49 1013.6
20260507231230 56 317 3.5 6.1 0.00 0.03 0.03 47 1013.4
20260507230726 56 323 4.3 6.1 0.00 0.03 0.03 46 1013.6
20260507230224 56 303 3.5 6.1 0.00 0.03 0.03 46 1013.5
20260507225723 57 335 2.6 5.2 0.00 0.03 0.03 46 1013.4
20260507225220 56 339 2.6 6.1 0.00 0.03 0.03 47 1013.3
20260507224716 56 314 2.6 8.7 0.00 0.03 0.03 45 1013.5
20260507224213 56 298 7.0 9.6 0.00 0.03 0.03 44 1013.4
20260507223709 57 325 5.2 7.8 0.00 0.03 0.03 46 1013.6
20260507223206 58 293 3.5 7.0 0.00 0.03 0.03 43 1013.4
20260507222702 57 312 3.5 7.8 0.00 0.03 0.03 44 1013.4
20260507222159 57 297 7.0 11.3 0.00 0.03 0.03 46 1013.2
20260507221655 57 320 3.5 7.0 0.00 0.03 0.03 47 1013.2
20260507221151 59 315 6.1 7.0 0.00 0.03 0.03 44 1013.0
20260507220649 59 265 2.6 12.2 0.00 0.03 0.03 45 1013.1
20260507220147 60 309 5.2 9.6 0.00 0.03 0.03 41 1013.0
20260507215642 60 342 2.6 7.0 0.00 0.03 0.03 43 1013.0
20260507215140 58 290 2.6 6.1 0.00 0.03 0.03 48 1013.1
20260507214637 59 307 6.1 7.8 0.00 0.03 0.03 45 1012.8
20260507214134 60 329 3.5 7.0 0.00 0.03 0.03 44 1012.9
20260507213630 60 31 3.5 6.1 0.00 0.03 0.03 48 1012.9
20260507213127 58 313 5.2 6.1 0.00 0.03 0.03 49 1013.0
20260507212623 57 336 7.0 8.7 0.00 0.03 0.03 49 1012.7
20260507212120 58 25 5.2 8.7 0.00 0.03 0.03 50 1012.6
20260507211617 59 302 5.2 11.3 0.00 0.03 0.03 45 1012.8
20260507211113 59 304 3.5 7.0 0.00 0.03 0.03 48 1012.6
20260507210611 58 315 6.1 7.8 0.00 0.03 0.03 48 1012.8
20260507210107 58 301 5.2 8.7 0.00 0.03 0.03 48 1012.7
20260507205604 58 325 4.3 7.0 0.00 0.03 0.03 47 1012.6
20260507205100 57 295 7.0 11.3 0.00 0.03 0.03 45 1012.7
20260507204556 58 306 6.1 9.6 0.00 0.03 0.03 50 1012.7
20260507204054 59 313 4.3 6.1 0.00 0.03 0.03 46 1012.6
20260507203552 59 321 3.5 5.2 0.00 0.03 0.03 49 1012.2
20260507203049 58 319 1.7 7.0 0.00 0.03 0.03 44 1012.3
20260507202544 59 327 5.2 6.1 0.00 0.03 0.03 48 1012.7
20260507202041 60 318 1.7 3.5 0.00 0.03 0.03 52 1012.8
20260507201536 60 8 4.3 8.7 0.00 0.03 0.03 49 1012.7
20260507201033 59 312 4.3 8.7 0.00 0.03 0.03 47 1012.8
20260507200528 58 324 7.0 11.3 0.00 0.03 0.03 48 1012.9
20260507200025 59 339 5.2 11.3 0.00 0.03 0.03 49 1012.9
20260507195522 57 301 5.2 9.6 0.00 0.03 0.03 46 1013.0
20260507195020 59 307 5.2 7.0 0.00 0.03 0.03 45 1013.1
20260507194516 59 349 1.7 3.5 0.00 0.03 0.03 51 1013.1
20260507194012 60 292 2.6 7.0 0.00 0.03 0.03 49 1013.2
20260507193509 60 325 5.2 8.7 0.00 0.03 0.03 47 1013.1
20260507193006 59 306 3.5 7.0 0.00 0.03 0.03 48 1013.2
20260507192502 57 317 5.2 7.0 0.00 0.03 0.03 51 1013.3
20260507191959 57 308 6.1 11.3 0.00 0.03 0.03 51 1013.3
20260507191454 57 329 4.3 7.0 0.00 0.03 0.03 49 1013.2
20260507190952 58 277 7.0 8.7 0.00 0.03 0.03 49 1013.2
20260507190449 59 207 2.6 3.5 0.00 0.03 0.03 50 1013.2
20260507185948 57 169 4.3 7.8 0.00 0.03 0.03 47 1013.4
20260507185445 60 279 7.8 12.2 0.00 0.03 0.03 44 1013.1
20260507184941 58 344 6.1 7.8 0.00 0.03 0.03 51 1013.1
20260507184439 58 259 1.7 8.7 0.00 0.03 0.03 46 1013.2
20260507183937 59 316 4.3 7.8 0.00 0.03 0.03 47 1013.5
20260507183434 58 21 2.6 7.0 0.00 0.03 0.03 47 1013.4
20260507182931 58 261 3.5 6.1 0.00 0.03 0.03 48 1013.3
20260507182427 59 245 3.5 7.0 0.00 0.03 0.03 52 1013.3
20260507181923 58 314 6.1 8.7 0.00 0.03 0.03 49 1013.4
20260507181419 57 327 4.3 7.8 0.00 0.03 0.03 52 1013.6
20260507180916 58 14 4.3 5.2 0.00 0.03 0.03 53 1013.5
20260507180413 59 333 4.3 11.3 0.00 0.03 0.03 55 1013.4
20260507175909 58 15 9.6 12.2 0.00 0.03 0.03 51 1013.5
20260507175406 58 319 0.9 3.5 0.00 0.03 0.03 51 1013.6
20260507174903 58 345 7.8 8.7 0.00 0.03 0.03 54 1013.6
20260507174400 58 2 6.1 7.8 0.00 0.03 0.03 54 1013.5
20260507173858 57 333 5.2 6.1 0.00 0.03 0.03 57 1013.7
20260507173355 57 284 5.2 7.0 0.00 0.03 0.03 50 1013.7
20260507172851 57 308 2.6 6.1 0.00 0.03 0.03 49 1013.9
20260507172348 57 26 2.6 3.5 0.00 0.03 0.03 51 1014.0
20260507171844 58 311 7.8 8.7 0.00 0.03 0.03 47 1013.9
20260507171341 58 18 1.7 6.1 0.00 0.03 0.03 59 1014.1
20260507170838 56 312 2.6 7.8 0.00 0.03 0.03 54 1014.1
20260507170334 56 278 0.9 5.2 0.00 0.03 0.03 50 1014.1
20260507165830 56 321 5.2 9.6 0.00 0.03 0.03 57 1014.2
20260507165326 55 304 3.5 5.2 0.00 0.03 0.03 59 1014.2
20260507164823 56 359 2.6 7.8 0.00 0.03 0.03 60 1014.5
20260507164320 56 336 4.3 11.3 0.00 0.03 0.03 59 1014.2
20260507163817 56 333 4.3 7.0 0.00 0.03 0.03 54 1014.4
20260507163314 56 345 3.5 6.1 0.00 0.03 0.03 56 1014.7
20260507162810 55 272 1.7 6.1 0.00 0.03 0.03 55 1014.7
20260507162307 55 307 1.7 7.0 0.00 0.03 0.03 52 1014.7
20260507161804 55 343 4.3 8.7 0.00 0.03 0.03 54 1014.7
20260507161300 54 317 3.5 5.2 0.00 0.03 0.03 59 1014.9
20260507160756 54 326 5.2 9.6 0.00 0.03 0.03 60 1014.8
20260507160252 55 322 2.6 6.1 0.00 0.03 0.03 62 1014.8
20260507155748 54 62 2.6 3.5 0.00 0.03 0.03 60 1014.9
20260507155244 54 323 3.5 7.0 0.00 0.03 0.03 60 1014.9
20260507154741 55 292 2.6 6.1 0.00 0.03 0.03 57 1014.8
20260507154239 56 316 1.7 2.6 0.00 0.03 0.03 58 1015.1
20260507153735 55 331 1.7 3.5 0.00 0.03 0.03 63 1014.9
20260507153232 55 334 1.7 3.5 0.00 0.03 0.03 66 1015.0
20260507152728 55 257 0.0 2.6 0.00 0.03 0.03 60 1014.7
20260507152225 54 67 0.0 3.5 0.00 0.03 0.03 61 1014.8
20260507151721 53 329 3.5 7.0 0.00 0.03 0.03 66 1015.0
20260507151218 54 5 1.7 1.7 0.00 0.03 0.03 67 1015.0
20260507150714 54 138 0.0 2.6 0.00 0.03 0.03 61 1015.2
20260507150211 54 7 0.0 2.6 0.00 0.03 0.03 59 1015.1
20260507145707 53 248 0.9 3.5 0.00 0.03 0.03 63 1015.1
20260507145204 52 277 0.9 6.1 0.00 0.03 0.03 65 1015.2
20260507144700 53 306 3.5 6.1 0.00 0.03 0.03 65 1015.3
20260507144159 52 303 1.7 5.2 0.00 0.03 0.03 70 1015.2
20260507143655 54 15 1.7 1.7 0.00 0.03 0.03 66 1015.4
20260507143152 52 296 0.9 2.6 0.00 0.03 0.03 65 1015.7
20260507142648 51 320 4.3 5.2 0.00 0.03 0.03 72 1015.7
20260507142145 52 335 2.6 3.5 0.00 0.03 0.03 71 1015.7
20260507141641 54 304 3.5 3.5 0.00 0.03 0.03 76 1015.7
20260507141138 52 215 4.3 5.2 0.00 0.03 0.03 73 1015.8
20260507140634 51 283 1.7 1.7 0.00 0.03 0.03 81 1016.0
20260507140132 53 269 0.0 1.7 0.00 0.03 0.03 78 1015.9
20260507135629 54 242 1.7 3.5 0.00 0.03 0.03 77 1016.1
20260507135126 52 291 0.0 0.0 0.00 0.03 0.03 76 1016.1
20260507134622 50 292 0.0 0.0 0.00 0.03 0.03 83 1016.2
20260507134119 51 260 0.9 2.6 0.00 0.03 0.03 84 1016.1
20260507133614 53 267 1.7 2.6 0.00 0.03 0.03 85 1016.3
20260507133112 51 221 0.0 1.7 0.00 0.03 0.03 86 1016.0
20260507132609 49 283 0.0 0.0 0.00 0.03 0.03 91 1016.2
20260507132105 49 271 0.9 1.7 0.00 0.03 0.03 94 1016.2
20260507131602 49 227 1.7 1.7 0.00 0.03 0.03 94 1016.2
20260507131100 48 260 0.9 0.9 0.00 0.03 0.03 93 1016.2
20260507130556 48 261 0.9 1.7 0.00 0.03 0.03 94 1016.2
20260507130054 48 218 1.7 1.7 0.00 0.03 0.03 94 1016.3
20260507125553 48 270 0.0 0.0 0.00 0.03 0.03 96 1016.3
20260507125050 48 270 0.0 0.0 0.00 0.03 0.03 97 1016.4
20260507124546 47 271 0.0 0.0 0.00 0.03 0.03 97 1016.2
20260507124044 47 263 0.0 0.0 0.00 0.03 0.03 97 1016.2
20260507123542 47 226 0.0 1.7 0.00 0.03 0.03 97 1016.3
20260507123038 47 283 0.0 0.0 0.00 0.03 0.03 97 1016.5
20260507122534 47 311 0.0 0.0 0.00 0.03 0.03 97 1016.5
20260507122030 47 312 0.0 0.0 0.00 0.03 0.03 97 1016.3
20260507121525 47 349 0.0 0.0 0.00 0.03 0.03 97 1016.3
20260507121021 46 349 0.0 0.0 0.00 0.03 0.03 97 1016.2
20260507120518 46 349 0.0 0.0 0.00 0.03 0.03 97 1016.2
20260507120015 46 352 0.0 0.0 0.00 0.03 0.03 98 1016.0
20260507115511 46 352 0.0 0.0 0.00 0.03 0.03 98 1016.2
20260507115007 46 352 0.0 0.0 0.00 0.03 0.03 98 1016.0
20260507114503 46 352 0.0 0.0 0.00 0.03 0.03 98 1016.0
20260507114000 46 352 0.0 0.0 0.00 0.03 0.03 98 1015.9
20260507113458 45 353 0.0 0.0 0.00 0.03 0.03 98 1015.8
20260507112955 45 354 0.0 0.0 0.00 0.03 0.03 98 1016.0
20260507112452 45 357 0.0 0.0 0.00 0.03 0.03 98 1015.9
20260507111949 45 355 0.0 0.0 0.00 0.03 0.03 98 1015.5
20260507111446 45 1 0.0 0.0 0.00 0.03 0.03 98 1015.8
20260507110942 45 2 0.0 0.0 0.00 0.03 0.03 99 1015.8
20260507110439 45 1 0.0 0.0 0.00 0.03 0.03 99 1015.6
20260507105935 45 1 0.0 0.0 0.00 0.03 0.03 99 1015.6
20260507105432 45 1 0.0 0.0 0.00 0.03 0.03 99 1015.5
20260507104929 45 1 0.0 0.0 0.00 0.03 0.03 99 1015.5
20260507104426 45 1 0.0 0.0 0.00 0.03 0.03 99 1015.5
20260507103921 45 1 0.0 0.0 0.00 0.03 0.03 99 1015.4
20260507103418 45 356 0.0 0.0 0.00 0.03 0.03 99 1015.3
20260507102914 45 356 0.0 0.0 0.00 0.03 0.03 99 1015.4
20260507102411 45 18 0.0 0.9 0.00 0.03 0.03 99 1015.4
20260507101908 45 8 0.9 1.7 0.00 0.03 0.03 99 1015.4
20260507101403 45 3 0.0 0.0 0.00 0.03 0.03 99 1015.2
20260507100900 46 351 0.0 0.0 0.00 0.03 0.03 99 1015.2
20260507100357 46 334 0.9 0.9 0.00 0.03 0.03 99 1015.1
20260507095855 46 8 0.0 0.9 0.00 0.03 0.03 99 1015.2
20260507095352 46 3 0.0 0.0 0.00 0.03 0.03 99 1015.2
20260507094849 46 4 0.0 0.0 0.00 0.03 0.03 99 1015.1
20260507094345 47 5 0.0 0.0 0.00 0.03 0.03 99 1014.9
20260507093843 47 2 0.0 0.0 0.00 0.03 0.03 99 1015.1
20260507093341 47 2 0.0 0.0 0.00 0.03 0.03 99 1015.0
20260507092839 46 2 0.0 0.0 0.00 0.03 0.03 99 1014.8
20260507092334 46 2 0.0 0.0 0.00 0.03 0.03 99 1015.0
20260507091831 46 2 0.0 0.0 0.00 0.03 0.03 99 1015.3
20260507091328 46 2 0.0 0.0 0.00 0.03 0.03 99 1015.1
20260507090823 46 2 0.0 0.0 0.00 0.03 0.03 99 1015.3
20260507090320 47 2 0.0 0.0 0.00 0.03 0.03 99 1015.2
20260507085817 47 2 0.0 0.0 0.00 0.03 0.03 99 1015.2
20260507085314 47 2 0.0 0.0 0.00 0.03 0.03 99 1014.9
20260507084811 47 2 0.0 0.0 0.00 0.03 0.03 99 1014.9
20260507084307 47 2 0.0 0.0 0.00 0.03 0.03 99 1015.0
20260507083805 47 2 0.0 0.0 0.00 0.03 0.03 99 1014.9
20260507083301 47 2 0.0 0.0 0.00 0.03 0.03 99 1015.1
20260507082757 46 2 0.0 0.0 0.00 0.03 0.03 99 1015.1
20260507082253 46 2 0.0 0.0 0.00 0.03 0.03 99 1015.1
20260507081750 47 2 0.0 0.0 0.00 0.03 0.03 99 1015.2
20260507081246 47 3 0.0 0.0 0.00 0.03 0.03 99 1015.1
20260507080743 47 2 0.0 0.0 0.00 0.03 0.03 99 1015.2
20260507080239 47 33 0.0 0.0 0.00 0.03 0.03 99 1015.3
20260507075735 47 26 0.0 2.6 0.00 0.03 0.03 99 1015.1
20260507075231 47 357 0.0 0.0 0.00 0.03 0.03 99 1015.1
20260507074727 47 324 1.7 2.6 0.00 0.03 0.03 99 1015.1
20260507074226 48 287 0.0 0.0 0.07 0.03 0.03 99 1015.0
20260507073722 47 337 1.7 3.5 0.07 0.03 0.03 99 1015.1
20260507073219 48 284 1.7 3.5 0.00 0.02 0.02 99 1015.0
20260507072717 48 300 0.0 0.0 0.00 0.02 0.02 99 1014.9
20260507072214 48 286 0.0 0.0 0.00 0.02 0.02 99 1015.0
20260507071711 47 276 0.0 0.0 0.00 0.02 0.02 99 1015.0
20260507071207 47 285 0.9 1.7 0.07 0.02 0.02 99 1015.0
20260507070705 47 248 0.9 1.7 0.07 0.02 0.02 99 1014.9
20260507070201 48 282 0.9 1.7 0.00 0.01 0.01 99 1015.1
20260507065657 48 278 1.7 2.6 0.05 0.01 0.01 99 1015.1
20260507065155 48 307 0.0 0.0 0.05 0.01 0.01 99 1015.2
20260507064652 48 271 0.0 0.0 0.00 0.00 0.00 99 1014.9
20260507064150 48 238 0.9 2.6 0.00 0.00 0.00 99 1014.9
20260507063648 48 234 0.0 0.9 0.00 0.00 0.00 99 1014.9
20260507063144 48 232 0.0 1.7 0.00 0.00 0.00 99 1014.9
20260507062641 48 257 0.9 1.7 0.00 0.00 0.00 99 1015.0
20260507062139 48 233 0.9 1.7 0.00 0.00 0.00 99 1014.8
20260507061637 48 249 0.9 1.7 0.00 0.00 0.00 99 1014.8
20260507061134 48 243 0.0 1.7 0.00 0.00 0.00 99 1015.0
20260507060632 48 241 0.9 2.6 0.00 0.00 0.00 99 1015.3
20260507060128 48 244 2.6 2.6 0.00 0.00 0.00 99 1015.2
20260507055624 48 286 0.0 0.0 0.00 0.00 0.00 99 1015.3
20260507055120 48 286 0.0 0.0 0.00 0.00 0.00 99 1015.3
20260507054616 48 286 0.0 0.0 0.00 0.00 0.00 99 1015.5
20260507054113 48 286 0.0 0.0 0.00 0.00 0.00 99 1015.6
20260507053611 48 286 0.0 0.0 0.00 0.00 0.00 99 1015.4
20260507053110 48 286 0.0 0.0 0.00 0.00 0.00 99 1015.6
20260507052607 48 286 0.0 0.0 0.00 0.00 0.00 99 1015.6
20260507052103 48 286 0.0 0.0 0.00 0.00 0.00 99 1015.6
20260507051601 48 286 0.0 0.0 0.00 0.00 0.00 99 1015.6
20260507051058 48 286 0.0 0.0 0.00 0.00 0.00 99 1015.7
20260507050554 48 286 0.0 0.0 0.00 0.00 0.00 99 1015.8
20260507050051 48 286 0.0 0.0 0.00 0.00 0.00 99 1015.8
20260507045548 48 286 0.0 0.0 0.00 0.00 0.00 99 1015.6
20260507045045 48 286 0.0 0.0 0.00 0.00 0.00 99 1015.8
20260507044541 48 286 0.0 0.0 0.00 0.00 0.00 99 1015.6
20260507044039 48 286 0.0 0.0 0.00 0.00 0.00 99 1015.8
20260507043534 48 286 0.0 0.9 0.00 0.00 0.00 99 1015.6
20260507043032 48 286 0.0 0.0 0.00 0.00 0.00 99 1015.6
20260507042527 48 286 0.0 0.0 0.00 0.00 0.00 99 1015.5
20260507042024 48 286 0.0 0.0 0.00 0.00 0.00 99 1015.4
20260507041521 48 286 0.0 0.0 0.00 0.00 0.00 99 1015.5
20260507041017 48 286 0.0 0.0 0.00 0.00 0.00 99 1015.4
20260507040514 48 286 0.0 0.0 0.00 0.00 0.00 99 1015.5
20260507040009 48 286 0.0 0.0 0.00 0.54 0.54 99 1015.4
20260507035506 48 286 0.0 0.0 0.00 0.54 0.54 99 1015.4
20260507035002 48 286 0.0 0.0 0.00 0.54 0.54 99 1015.6
20260507034459 48 286 0.0 0.0 0.00 0.54 0.54 99 1015.6
20260507033957 48 286 0.0 0.0 0.00 0.54 0.54 99 1015.6
20260507033455 48 286 0.0 0.0 0.07 0.54 0.54 99 1015.6
20260507032952 48 286 0.0 0.0 0.00 0.53 0.53 99 1015.4
20260507032449 48 286 0.0 0.0 0.00 0.53 0.53 99 1015.5
20260507031945 48 286 0.0 0.0 0.00 0.53 0.53 99 1015.7
20260507031441 48 286 0.0 0.0 0.05 0.53 0.53 99 1015.9
20260507030938 48 286 0.0 0.0 0.00 0.52 0.52 99 1015.8
20260507030435 48 286 0.0 0.0 0.00 0.52 0.52 99 1015.9
20260507025932 48 286 0.0 0.0 0.00 0.52 0.52 99 1015.7
20260507025430 48 286 0.0 0.0 0.00 0.52 0.52 99 1015.8
20260507024928 48 286 0.0 0.0 0.00 0.52 0.52 99 1015.7
20260507024425 49 286 0.0 0.0 0.00 0.52 0.52 99 1015.1
20260507023920 49 286 0.0 0.0 0.00 0.52 0.52 99 1015.0